Abakan, Russia

9:06 AM +07 on October 23, 2019 (GMT +0700)
Abakan

Weather History for UNAA - August, 2019

Change the Weather History Date:

Sunday, August 18, 2019

  Actual Average (WUND) Record (WUND)
Temperature  
Mean Temperature 60 °F -  
Max Temperature 71 °F - - (-1)
Min Temperature 50 °F - - (-1)
Degree Days  
Heating Degree Days 4    
Growing Degree Days 10 (Base 50)    
Moisture  
Dew Point 56 °F    
Average Humidity 84    
Maximum Humidity 100    
Minimum Humidity 57    
Precipitation  
Precipitation 0.00 in - - ()
Sea Level Pressure  
Sea Level Pressure 29.90 in    
Wind  
Wind Speed 3 mph ()    
Max Wind Speed 13 mph    
Max Gust Speed -    
Visibility 3.4 miles    
Events Fog    
Averages and records for this station are not official NWS values.
T = Trace of Precipitation, MM = Missing Value Source: Averaged Metar Reports

Daily Weather History Graph

Daily Weather History Graph

Search for Another Location

Airport or City:

Astronomy

Aug. 18, 2019 Rise Set
Actual Time 5:37 AM +07 8:18 PM +07
Civil Twilight 4:57 AM +07 8:57 PM +07
Nautical Twilight 4:06 AM +07 9:48 PM +07
Astronomical Twilight 3:01 AM +07 10:51 PM +07
Moon 9:40 PM +07 (8/18) 8:08 AM +07 (8/18)
Length of Visible Light 16h 00m
Length of Day
14h 40m
Waning Gibbous, 94% of the Moon is Illuminated
Aug 18
Waning Gibbous
Aug 23
Last Quarter
Aug 30
New
Sep 6
First Quarter
Sep 14
Full

Hourly Weather History & Observations

Time (+07) Temp. Dew Point Humidity Pressure Visibility Wind Dir Wind Speed Gust Speed Precip Events Conditions
12:00 AM 57.2 °F 55.4 °F 94% 29.92 in 4.3 mi NE 2.2 mph - N/A   Unknown
12:30 AM 57.2 °F 57.2 °F 100% 29.92 in 4.3 mi Calm Calm - N/A   Unknown
1:00 AM 55.4 °F 53.6 °F 94% 29.92 in 1.6 mi NW 4.5 mph - N/A   Mist
1:30 AM 55.4 °F 53.6 °F 94% 29.92 in 3.1 mi Calm Calm - N/A   Mist
2:00 AM 55.4 °F 53.6 °F 94% 29.92 in 0.8 mi Calm Calm - N/A   Mist
2:30 AM 55.4 °F 53.6 °F 94% 29.92 in 1.6 mi ESE 2.2 mph - N/A   Scattered Clouds
3:00 AM 53.6 °F 53.6 °F 100% 29.92 in 5.6 mi Variable 2.2 mph - N/A   Scattered Clouds
3:30 AM 55.4 °F 55.4 °F 100% 29.92 in 5.0 mi Variable 2.2 mph - N/A   Scattered Clouds
4:00 AM 55.4 °F 55.4 °F 100% 29.92 in 3.1 mi SSE 2.2 mph - N/A   Mist
4:30 AM 51.8 °F 51.8 °F 100% 29.92 in 0.7 mi North 2.2 mph - N/A   Mist
5:00 AM 51.8 °F 50.0 °F 94% 29.92 in 0.7 mi Variable 2.2 mph - N/A   Scattered Clouds
5:30 AM 50.0 °F 50.0 °F 100% 29.92 in 1.2 mi Calm Calm - N/A   Mist
6:00 AM 51.8 °F 51.8 °F 100% 29.92 in 3.1 mi Calm Calm - N/A   Mist
6:30 AM 53.6 °F 51.8 °F 94% 29.92 in - SSW 2.2 mph - N/A   Scattered Clouds
7:00 AM 55.4 °F 53.6 °F 94% 29.92 in 0.2 mi Calm Calm - N/A Fog Fog
7:30 AM 55.4 °F 55.4 °F 100% 29.92 in 0.5 mi Calm Calm - N/A Fog Fog
8:00 AM 55.4 °F 55.4 °F 100% 29.92 in 0.3 mi SSW 2.2 mph - N/A Fog Fog
8:30 AM 57.2 °F 57.2 °F 100% 29.92 in - WNW 2.2 mph - N/A   Scattered Clouds
9:00 AM 59.0 °F 59.0 °F 100% 29.92 in 4.3 mi Calm Calm - N/A   Mostly Cloudy
9:30 AM 59.0 °F 59.0 °F 100% 29.92 in 5.0 mi Calm Calm - N/A   Mostly Cloudy
10:00 AM 60.8 °F 59.0 °F 94% 29.92 in 5.6 mi North 4.5 mph - N/A   Mostly Cloudy
10:30 AM 60.8 °F 59.0 °F 94% 29.92 in 6.2 mi North 4.5 mph - N/A   Mostly Cloudy
11:00 AM 62.6 °F 59.0 °F 88% 29.92 in 6.2 mi Variable 2.2 mph - N/A   Scattered Clouds
11:30 AM 64.4 °F 59.0 °F 83% 29.92 in 6.2 mi NNW 4.5 mph - N/A   Scattered Clouds
12:00 PM 66.2 °F 59.0 °F 78% 29.89 in - NNW 4.5 mph - N/A   Clear
12:30 PM 68.0 °F 59.0 °F 73% 29.89 in - North 6.7 mph - N/A   Clear
1:00 PM 68.0 °F 59.0 °F 73% 29.89 in - North 6.7 mph - N/A   Clear
1:30 PM 69.8 °F 59.0 °F 68% 29.86 in - North 6.7 mph - N/A   Clear
2:00 PM 69.8 °F 59.0 °F 68% 29.86 in 6.2 mi North 6.7 mph - N/A   Partly Cloudy
2:30 PM 69.8 °F 57.2 °F 64% 29.86 in - North 4.5 mph - N/A   Clear
3:00 PM 71.6 °F 57.2 °F 60% 29.83 in - North 4.5 mph - N/A   Clear
3:30 PM 71.6 °F 55.4 °F 57% 29.86 in - NNE 4.5 mph - N/A   Clear
4:30 PM 71.6 °F 57.2 °F 60% 29.86 in - North 4.5 mph - N/A   Clear
5:00 PM 71.6 °F 55.4 °F 57% 29.86 in - North 6.7 mph - N/A   Clear
5:30 PM 71.6 °F 57.2 °F 60% 29.83 in - North 8.9 mph - N/A   Clear
6:00 PM 68.0 °F 59.0 °F 73% 29.86 in - North 4.5 mph - N/A   Clear
6:30 PM 68.0 °F 59.0 °F 73% 29.86 in - NNW 2.2 mph - N/A   Clear
7:00 PM 68.0 °F 59.0 °F 73% 29.86 in - North 2.2 mph - N/A   Clear
7:30 PM 68.0 °F 59.0 °F 73% 29.86 in - North 4.5 mph - N/A   Clear
8:00 PM 64.4 °F 59.0 °F 83% 29.89 in - NNW 4.5 mph - N/A   Clear
8:30 PM 66.2 °F 51.8 °F 60% 29.89 in 6.2 mi North 13.4 mph - N/A   Partly Cloudy
9:00 PM 62.6 °F 53.6 °F 72% 29.89 in - NE 4.5 mph - N/A   Clear
9:30 PM 59.0 °F 53.6 °F 82% 29.92 in - WNW 8.9 mph - N/A   Clear
10:00 PM 59.0 °F 53.6 °F 82% 29.92 in - WNW 4.5 mph - N/A   Clear
10:30 PM 57.2 °F 51.8 °F 82% 29.92 in - South 4.5 mph - N/A   Clear
11:00 PM 57.2 °F 51.8 °F 82% 29.92 in - WSW 4.5 mph - N/A   Clear
11:30 PM 55.4 °F 51.8 °F 88% 29.92 in - South 2.2 mph - N/A   Clear